Погода в Заречном

Россия / Астраханская область     45°52′44″N   47°27′26″E
темп.,
°C
ветер,
м/с
пор.,
м/с
влажн.,
%
обл.,
%
осадки,
мм/ч
давл.,
гПа
погр.,
м
23 сентября, чт
чт2301:00+18ссз5783100 0.0 1010254
04:00+17с91285100 0.1 1009404
07:00+16ссз7985100 0.7 1010472
10:00+15с7882100 6.9 1010552
13:00+18ссз456415 0.0 1011830
16:00+20сз4554100 0.1 1010999
19:00+17сз4567100 0.0 1011349
22:00+16с6771100 0.0 1011326
24 сентября, пт
пт2401:00+15ссз6769100 0.1 1011415
04:00+14с81178100 0.1 1009387
07:00+14ссз81186100 0.0 1007433
10:00+16сз101075100 0.0 1007667
13:00+16сз101173100 0.0 1009719
16:00+15сз10117568 0.0 1010802
19:00+14зсз8116380 0.0 1012689
22:00+14з61065100 0.0 1013581
25 сентября, сб
сб2501:00+13з612743 0.0 1013412
04:00+12з59800 0.0 1013251
07:00+12з5976100 0.0 1013234
10:00+16з4652100 0.0 1013494
13:00+19з4644100 0.0 10121185
16:00+20зюз464266 0.0 10121515
19:00+19зюз7946100 0.0 1014680
22:00+14зюз71176100 0.9 1015617
26 сентября, вс
вс2601:00+15зюз71171100 0.3 1015697
04:00+14з9116797 1.1 1015866
07:00+12з812755 0.0 1017693
10:00+14зсз910620 0.0 1018993
13:00+17зсз810490 0.0 10171550
16:00+19з810419 0.0 10161751
19:00+17з584518 0.0 1016237
22:00+16з71052100 0.0 1015819
27 сентября, пн
пн2701:00+15зюз8117198 0.3 10141027
04:00+14зюз8138366 1.2 1012817
07:00+14з914765 0.9 1012814
10:00+16зсз1012623 0.9 10131128
13:00+18зсз8105036 0.0 10131634
16:00+17зсз8948100 0.0 10141567
19:00+16сз675079 0.0 10161087
22:00+14сз46641 0.0 1016226